Location: Br�ttisellen
(47.4227°N, 8.6287°E)
Time: 09:30:33
(UTC+00:00)

Cosmos 2181 Rocket - Pass Details

Date: 09 April 2020
Orbit: 952 x 1015 km, 82.9° (Epoch: 24 May)

Event Time Altitude Azimuth Distance (km) Brightness Sun altitude
Exits shadow 19:28:03 - 167° (SSE) 3,320 6.4 -13.6°
Reaches altitude 10° 19:29:40 10° 164° (SSE) 2,725 5.9 -13.9°
Maximum altitude 19:35:38 50° 91° (E) 1,224 4.2 -14.8°
Drops below altitude 10° 19:41:33 10° 18° (NNE) 2,705 6.5 -15.6°
Sets 19:44:07 0° 14° (NNE) 3,650 7.2 -16.0°
